Miscellaneous Local Product
Issued by NWS Hastings, NE

Home | Current Version | Previous Version | Graphics & Text | Print | Product List | Glossary On
Versions: 1 2 3 4 5 6 7 8 9 10 11 12 13 14 15 16 17 18 19 20 21 22 23 24 25 26 27 28 29 30 31 32 33 34 35 36 37 38 39 40 41 42 43 44 45 46 47 48 49 50
000
AXUS43 KGID 240102
MISGRI

GID CWA HOURLY WEATHER ROUNDUP
NATIONAL WEATHER SERVICE HASTINGS NE
700 PM CST FRI JAN 23 2015

NOTE: "FAIR" INDICATES FEW OR NO CLOUDS BELOW 12,000 FEET WITH NO
SIGNIFICANT WEATHER AND/OR OBSTRUCTIONS TO VISIBILITY.

...SOUTH CENTRAL NEBRASKA...

CITY           SKY/WX    TMP DP  RH WIND       PRES   REMARKS
GRAND ISLAND   PTCLDY    38  28  67 N8        30.06R WCI  32
HASTINGS       MOCLDY    39  26  59 NW10      30.04R WCI  32
KEARNEY        PTCLDY    39  27  60 NW8       30.07R WCI  34
ORD            CLEAR     33  26  75 N8        30.06R WCI  26
YORK           MOCLDY    39  28  65 N8        30.03R WCI  34
AURORA         MOCLDY    40  29  65 N12       30.04R WCI  33
LEXINGTON      PTCLDY    39  29  66 NW10      30.10R WCI  33
HOLDREGE       CLOUDY    44  28  54 NW12      30.07R
HEBRON         MOCLDY    37  19  46 CALM      30.02S

...NEBRASKA PANHANDLE...

CITY           SKY/WX    TMP DP  RH WIND       PRES   REMARKS
CHADRON        CLEAR     39  28  64 W14       30.18R WCI  31
ALLIANCE       CLEAR     35  28  75 NW13      30.17S WCI  26
SCOTTSBLUFF    MOCLDY    36  28  73 W8        30.21R WCI  30
SIDNEY         PTCLDY    35  26  69 W10       30.20R WCI  27

...WESTERN AND NORTH CENTRAL NEBRASKA...

CITY           SKY/WX    TMP DP  RH WIND       PRES   REMARKS
VALENTINE      CLEAR     35  27  72 W8        30.11R WCI  29
AINSWORTH      CLEAR     39  29  66 NW9       30.09R WCI  33
ONEILL         CLEAR     38  32  79 NW8       30.05S WCI  32
BROKEN BOW     CLEAR     38  28  67 NW10      30.08R WCI  31
IMPERIAL       MOCLDY    40  25  55 NW9       30.17R WCI  34
NORTH PLATTE   CLEAR     31  23  72 NW6       30.14R WCI  25
MCCOOK         CLOUDY    46  27  47 NW13      30.11R

...EASTERN NEBRASKA...

CITY           SKY/WX    TMP DP  RH WIND       PRES   REMARKS
NORFOLK        CLEAR     38  31  76 NW12      30.01R WCI  30
SO SIOUX CITY  CLEAR     38  31  76 NW10      29.99R WCI  31
TEKAMAH        CLEAR     37  28  70 NW12      30.00R WCI  29
COLUMBUS       CLEAR     36  25  64 NW8       30.04R WCI  29
ALBION         CLEAR     39  30  69 N7        30.04R WCI  34
OMAHA EPPLEY   CLEAR     36  24  62 CALM      30.00R
OFFUTT AFB     CLEAR     32  22  66 CALM      29.99R
MILLARD        CLEAR     35  25  66 CALM      30.00R
LINCOLN        CLEAR     29  19  66 CALM      30.03R
NEBRASKA CITY  CLOUDY    38  15  39 NW8       29.99R WCI  32
BEATRICE       PTCLDY    36  20  52 W8        30.01R WCI  30
FALLS CITY     CLOUDY    43  17  35 W7        29.99S

...NORTHERN KANSAS...

CITY           SKY/WX    TMP DP  RH WIND       PRES   REMARKS
GOODLAND       CLOUDY    40  29  64 NW15      30.16R WCI  32
HILL CITY      CLOUDY    48  27  44 N14       30.08R
NORTON         MOCLDY    45  25  45 NW15      30.09
PHILLIPSBURG   PTCLDY    48  30  49 NW10      30.08R
SMITH CENTER   PTCLDY    43  27  52 NW12      30.06R
BELOIT         PTCLDY    43  21  42 NW7       30.04R
HAYS           CLOUDY    45  21  39 N8        30.06R
RUSSELL        CLOUDY    43  21  41 NW6       30.04R
CONCORDIA      CLOUDY    37  19  48 W7        30.03R WCI  32
SALINA         CLOUDY    44  21  40 W7        30.03R
TOPEKA         CLOUDY    42  18  37 CALM      30.01S



USA.gov is the U.S. government's official web portal to all federal, state and local government web resources and services.